EW5449 Weather Reports


Display with metric or nautical units.
time (UTC)temp
F
wind
direction
speed
MPH
gust
MPH
rain 1hr
in
rain 24hr
in
rain mn
in
humidity
%
barometer
mb
20260504173042 74 123 0.0 6.0 0.00 0.00 0.00 34 1010.8
20260504171545 74 200 1.0 8.0 0.00 0.00 0.00 35 1011.0
20260504081523 46 189 0.0 2.0 0.00 0.00 0.00 64 1014.7
20260504044549 44 197 0.0 0.0 0.00 0.00 0.00 73 1015.4
20260504043047 44 197 0.0 0.0 0.00 0.00 0.00 70 1015.4
20260504041545 44 197 0.0 0.0 0.00 0.00 0.00 68 1015.5
20260504040042 44 197 0.0 2.0 0.00 0.00 0.00 70 1015.6
20260504034546 44 197 0.0 0.0 0.00 0.00 0.00 76 1015.4
20260504033041 45 197 0.0 0.0 0.00 0.00 0.00 75 1015.1
20260504031539 46 197 0.0 0.0 0.00 0.00 0.00 73 1015.1
20260504030042 46 197 0.0 0.0 0.00 0.00 0.00 73 1015.2
20260504024538 47 197 0.0 0.0 0.00 0.00 0.00 71 1015.2
20260504023036 48 197 0.0 0.0 0.00 0.00 0.00 68 1015.1
20260504021536 48 197 0.0 0.0 0.00 0.00 0.00 68 1015.0
20260504020037 49 197 0.0 0.0 0.00 0.00 0.00 61 1014.7
20260504014543 50 197 0.0 0.0 0.00 0.00 0.00 55 1014.6
20260504013034 51 197 0.0 0.0 0.00 0.00 0.00 51 1014.4
20260504011532 52 197 0.0 0.0 0.00 0.00 0.00 46 1014.2
20260504010031 54 197 0.0 0.0 0.00 0.00 0.00 45 1014.2
20260504004531 56 197 0.0 0.0 0.00 0.00 0.00 43 1014.1
20260504003030 57 197 0.0 0.0 0.00 0.00 0.00 41 1014.1
20260504001530 59 197 0.0 0.0 0.00 0.00 0.00 37 1014.1
20260504000029 59 197 0.0 2.0 0.00 0.00 0.00 33 1014.0
20260503234542 60 164 0.0 2.0 0.00 0.00 0.00 31 1014.0
20260503233028 61 138 0.0 3.0 0.00 0.00 0.00 31 1013.9
20260503231528 61 210 0.0 4.0 0.00 0.00 0.00 30 1013.8
20260503230039 61 207 0.0 7.0 0.00 0.00 0.00 28 1013.7
20260503224525 62 297 0.0 4.0 0.00 0.00 0.00 30 1013.7
20260503223024 62 247 1.0 5.0 0.00 0.00 0.00 29 1013.6
20260503221524 63 294 1.0 4.0 0.00 0.00 0.00 28 1013.7
20260503220038 63 213 1.0 7.0 0.00 0.00 0.00 28 1013.9
20260503214521 63 269 1.0 5.0 0.00 0.00 0.00 28 1013.9
20260503213024 63 202 1.0 5.0 0.00 0.00 0.00 27 1013.9
20260503211521 63 205 1.0 15.0 0.00 0.00 0.00 27 1013.9
20260503210018 63 176 1.0 5.0 0.00 0.00 0.00 29 1014.0
20260503204518 63 198 0.0 8.0 0.00 0.00 0.00 28 1013.9
20260503203027 63 199 1.0 4.0 0.00 0.00 0.00 27 1014.0
20260503201518 63 213 2.0 6.0 0.00 0.00 0.00 29 1014.4
20260503200012 62 207 1.0 6.0 0.00 0.00 0.00 29 1014.3
20260503194511 62 203 0.0 7.0 0.00 0.00 0.00 30 1014.5
20260503193012 61 188 0.0 4.0 0.00 0.00 0.00 29 1014.9
20260503191518 61 288 1.0 7.0 0.00 0.00 0.00 29 1015.2
20260503190007 61 350 1.0 9.0 0.00 0.00 0.00 29 1015.3
20260503184505 60 202 0.0 5.0 0.00 0.00 0.00 31 1015.5
20260503183002 60 239 1.0 6.0 0.00 0.00 0.00 31 1015.6
20260503181501 59 313 1.0 5.0 0.00 0.00 0.00 31 1015.7
20260503180100 59 332 1.0 8.0 0.00 0.00 0.00 31 1015.7
20260503174558 58 205 1.0 7.0 0.00 0.00 0.00 33 1015.9